Torna al catalogo

NOAA 16 DEB

AttivoPO
NORAD 41050·DEBRIS·🇺🇸 United States

Lanciato Sep 21, 2000 da Vandenberg Space Force Base

Loading…

Prossimi Passaggi (prossime 24 ore)

TLE

AggiornatoSource: Space-Track

Epoca: Sep 14, 2026, 14:36 UTC

1 41050U 00055H   26257.60867123  .00040090  00000-0  30762-2 0  9998
2 41050  98.9253 133.2109 0007123  90.8384 269.3653 15.01640623564593

Traccia NOAA 16 DEB in tempo reale con AllMySat

Download on the App Store